Weather History for Beaufort MCAS, SC

Change the Weather History Date:

Wednesday, August 14, 2013

  Actual Average Record
Temperature  
Mean Temperature 84 °F -  
Max Temperature 93 °F 87 °F 98 °F (1938)
Min Temperature 75 °F 71 °F 62 °F (1967)
Cooling Degree Days 19    
Growing Degree Days 34 (Base 50)    
Moisture  
Dew Point 73 °F    
Average Humidity 83    
Maximum Humidity 96    
Minimum Humidity 50    
Precipitation  
Precipitation 1.40 in - - ()
Sea Level Pressure  
Sea Level Pressure 29.93 in    
Wind  
Wind Speed 9 mph (ESE)    
Max Wind Speed 20 mph    
Max Gust Speed 25 mph    
Visibility 7 miles    
Events Fog , Rain , Thunderstorm    
Averages and records for this station are not official NWS values.
T = Trace of Precipitation, MM = Missing Value Source: NWS Daily Summary

Daily Weather History Graph

Daily Weather History Graph

Search for Another Location

Airport:

Trip Planner

Search our weather history database for the weather conditions in past years. The results will help you decide how hot, cold, wet, or windy it might be!

Date:

Astronomy

Aug. 14, 2013 Rise Set
Actual Time 6:46 AM EDT 8:08 PM EDT
Civil Twilight 6:20 AM EDT 8:34 PM EDT
Nautical Twilight 5:49 AM EDT 9:05 PM EDT
Astronomical Twilight 5:16 AM EDT 9:37 PM EDT
Moon 2:14 PM EDT (8/14) 12:10 AM EDT (8/14)
Length of Visible Light 14h 13m
Length of Day
13h 22m
First Quarter, 52% of the Moon is Illuminated
Aug 14
First Quarter
Aug 20
Full
Aug 28
Last Quarter
Sep 5
New
Sep 12
First Quarter

Hourly Weather History & Observations

Time (EDT) Temp. Heat Index Dew Point Humidity Pressure Visibility Wind Dir Wind Speed Gust Speed Precip Events Conditions
12:56 AM 82.0 °F 87.4 °F 73.0 °F 74% 29.92 in 10.0 mi SW 9.2 mph - N/A   Scattered Clouds
1:56 AM 81.0 °F 85.8 °F 73.0 °F 77% 29.92 in 10.0 mi SW 8.1 mph - N/A   Partly Cloudy
2:56 AM 80.1 °F 84.2 °F 73.0 °F 79% 29.89 in 10.0 mi SW 8.1 mph - N/A   Mostly Cloudy
3:56 AM 79.0 °F - 73.0 °F 82% 29.88 in 10.0 mi WSW 9.2 mph - N/A   Clear
4:56 AM 79.0 °F - 73.0 °F 82% 29.89 in 10.0 mi WSW 8.1 mph - N/A   Mostly Cloudy
5:56 AM 78.1 °F - 73.0 °F 84% 29.89 in 10.0 mi WSW 8.1 mph - N/A   Clear
6:56 AM 77.0 °F - 73.0 °F 88% 29.91 in 9.0 mi West 6.9 mph - N/A   Clear
7:56 AM 78.1 °F - 73.0 °F 84% 29.93 in 10.0 mi West 11.5 mph - N/A   Mostly Cloudy
8:56 AM 81.0 °F 85.8 °F 73.0 °F 77% 29.94 in 10.0 mi West 9.2 mph - N/A   Mostly Cloudy
9:56 AM 84.0 °F 91.2 °F 73.9 °F 72% 29.93 in 10.0 mi WNW 5.8 mph - N/A   Scattered Clouds
10:56 AM 86.0 °F 93.8 °F 73.9 °F 67% 29.94 in 10.0 mi WNW 4.6 mph - N/A   Mostly Cloudy
11:56 AM 89.1 °F 98.0 °F 73.9 °F 61% 29.94 in 10.0 mi Variable 5.8 mph - N/A   Mostly Cloudy
12:56 PM 90.0 °F 96.9 °F 72.0 °F 55% 29.92 in 10.0 mi Variable 6.9 mph - N/A   Mostly Cloudy
1:56 PM 89.1 °F 97.0 °F 73.0 °F 59% 29.90 in 10.0 mi WNW 9.2 mph - N/A   Mostly Cloudy
2:56 PM 93.0 °F 100.7 °F 72.0 °F 50% 29.89 in 10.0 mi Variable 6.9 mph - 0.00 in   Mostly Cloudy
3:56 PM 89.1 °F 98.0 °F 73.9 °F 61% 29.87 in 10.0 mi NNE 15.0 mph - N/A   Mostly Cloudy
4:56 PM 84.0 °F 91.2 °F 73.9 °F 72% 29.88 in 10.0 mi ENE 16.1 mph - N/A Thunderstorm Thunderstorm
5:10 PM 82.9 °F 89.4 °F 73.9 °F 74% 29.89 in 10.0 mi ENE 12.7 mph - N/A Thunderstorm Thunderstorm
5:19 PM 81.0 °F 87.3 °F 75.9 °F 85% 29.87 in 0.2 mi ESE 19.6 mph 25.3 mph 0.14 in Rain , Thunderstorm Heavy Thunderstorms and Rain
5:35 PM 75.9 °F - 72.0 °F 87% 29.93 in 1.0 mi Variable 5.8 mph 20.7 mph 0.40 in Rain , Thunderstorm Heavy Thunderstorms and Rain
5:56 PM 75.0 °F - 73.0 °F 94% 29.92 in 0.5 mi NE 12.7 mph - 1.20 in Fog , Rain , Thunderstorm Heavy Thunderstorms and Rain
6:01 PM 75.0 °F - 73.0 °F 94% 29.93 in 1.0 mi NE 12.7 mph - 0.11 in Rain , Thunderstorm Heavy Thunderstorms and Rain
6:04 PM 75.0 °F - 73.9 °F 96% 29.94 in 1.2 mi NE 13.8 mph - 0.12 in Rain , Thunderstorm Heavy Thunderstorms and Rain
6:26 PM 75.0 °F - 73.0 °F 94% 29.91 in 4.0 mi ENE 11.5 mph 20.7 mph 0.14 in Rain , Thunderstorm Light Thunderstorms and Rain
6:56 PM 75.9 °F - 73.9 °F 94% 29.92 in 4.0 mi East 8.1 mph - 0.18 in Rain , Thunderstorm Light Thunderstorms and Rain
7:56 PM 77.0 °F - 73.9 °F 90% 29.95 in 10.0 mi East 10.4 mph - 0.01 in Rain , Thunderstorm Light Thunderstorms and Rain
8:19 PM 77.0 °F - 73.9 °F 90% 29.97 in 1.8 mi Variable 4.6 mph - 0.13 in Rain , Thunderstorm Light Thunderstorms and Rain
8:26 PM 75.9 °F - 73.9 °F 94% 29.97 in 1.5 mi Variable 5.8 mph - 0.19 in Rain , Thunderstorm Light Thunderstorms and Rain
8:29 PM 75.9 °F - 73.9 °F 94% 29.97 in 2.0 mi SE 9.2 mph - 0.20 in Rain , Thunderstorm Light Thunderstorms and Rain
8:34 PM 75.9 °F - 73.9 °F 94% 29.96 in 0.8 mi SE 9.2 mph - 0.31 in Rain , Thunderstorm Thunderstorms and Rain
8:59 PM 75.9 °F - 73.9 °F 94% 29.96 in 9.0 mi NE 8.1 mph - 0.00 in Rain Light Rain
9:10 PM 75.9 °F - 73.9 °F 94% 29.97 in 10.0 mi ENE 9.2 mph - 0.00 in   Overcast
9:56 PM 75.9 °F - 73.9 °F 94% 29.99 in 10.0 mi SE 4.6 mph - 0.01 in   Overcast
10:45 PM 75.9 °F - 73.9 °F 94% 30.03 in 8.0 mi SSE 3.5 mph - 0.01 in Rain , Thunderstorm Light Thunderstorms and Rain
11:00 PM 75.0 °F - 73.0 °F 94% 30.00 in 0.8 mi Variable 5.8 mph - N/A Rain Rain
11:33 PM 75.0 °F - 73.0 °F 94% 29.99 in 6.0 mi SE 6.9 mph - N/A Rain Rain
11:56 PM 75.0 °F - 73.0 °F 94% 30.01 in 8.0 mi SSE 4.6 mph - N/A Rain Light Rain